Weather History for Central Park, NY

Change the Weather History Date:

Wednesday, November 21, 2012

  Actual Average Record
Temperature  
Mean Temperature 47 °F 46 °F  
Max Temperature 53 °F 52 °F 74 °F (1900)
Min Temperature 40 °F 40 °F 16 °F (1879)
Degree Days  
Heating Degree Days 18 19  
Month to date heating degree days 419 333  
Since 1 July heating degree days 663 646  
Cooling Degree Days 0 0  
Month to date cooling degree days 0 0  
Year to date cooling degree days 1277 1104  
Moisture  
Dew Point 31 °F    
Average Humidity 56    
Maximum Humidity 70    
Minimum Humidity 42    
Precipitation  
Precipitation 0.00 in 0.14 in 1.33 in (1944)
Month to date precipitation 1.27 2.77  
Year to date precipitation 33.17 44.69  
Snow  
Snow 0.00 in 0.00 in 0.80 in (1937)
Month to date snowfall 4.7 0.1  
Since 1 July snowfall 4.7 0.1  
Snow Depth 0.00 in    
Sea Level Pressure  
Sea Level Pressure 30.19 in    
Wind  
Wind Speed 5 mph (NE)    
Max Wind Speed 10 mph    
Max Gust Speed 15 mph    
Visibility 10 miles    
Events      
T = Trace of Precipitation, MM = Missing Value Source: NWS Daily Summary

Daily Weather History Graph

Daily Weather History Graph

Search for Another Location

Airport:

Trip Planner

Search our weather history database for the weather conditions in past years. The results will help you decide how hot, cold, wet, or windy it might be!

Date:

Astronomy

Nov. 21, 2012 Rise Set
Actual Time 6:50 AM EST 4:33 PM EST
Civil Twilight 6:20 AM EST 5:02 PM EST
Nautical Twilight 5:46 AM EST 5:36 PM EST
Astronomical Twilight 5:14 AM EST 6:09 PM EST
Moon 12:50 PM EST 12:04 AM EST
Length of Visible Light 10h 42m
Length of Day
9h 42m
First Quarter, 61% of the Moon is Illuminated
Nov 21
First Quarter
Nov 28
Full
Dec 6
Last Quarter
Dec 13
New
Dec 20
First Quarter

Hourly Weather History & Observations

Time (EST) Temp. Windchill Dew Point Humidity Pressure Visibility Wind Dir Wind Speed Gust Speed Precip Events Conditions
12:51 AM 45.0 °F 43.5 °F 35.1 °F 68% 30.14 in 10.0 mi Variable 3.5 mph - N/A   Clear
1:51 AM 45.0 °F 42.6 °F 33.1 °F 63% 30.15 in 10.0 mi NNE 4.6 mph - N/A   Clear
2:51 AM 43.0 °F - 30.0 °F 60% 30.16 in 10.0 mi Calm Calm - N/A   Clear
3:51 AM 42.1 °F 40.2 °F 30.0 °F 62% 30.16 in 10.0 mi NE 3.5 mph - N/A   Clear
4:51 AM 41.0 °F 39.0 °F 32.0 °F 70% 30.17 in 10.0 mi NE 3.5 mph - N/A   Clear
5:51 AM 41.0 °F 38.0 °F 32.0 °F 70% 30.19 in 10.0 mi NNE 4.6 mph - N/A   Clear
6:51 AM 41.0 °F 38.0 °F 28.9 °F 62% 30.19 in 10.0 mi Variable 4.6 mph - N/A   Clear
7:51 AM 42.1 °F 37.7 °F 30.0 °F 62% 30.21 in 10.0 mi NNE 6.9 mph - N/A   Clear
8:51 AM 44.1 °F 39.5 °F 30.9 °F 60% 30.21 in 10.0 mi NE 8.1 mph - N/A   Clear
9:51 AM 46.9 °F - 33.1 °F 59% 30.21 in 10.0 mi ENE 9.2 mph - N/A   Clear
10:51 AM 48.9 °F - 32.0 °F 52% 30.21 in 10.0 mi NNE 8.1 mph - N/A   Clear
11:51 AM 51.1 °F - 33.1 °F 50% 30.20 in 10.0 mi Variable 4.6 mph - N/A   Clear
12:51 PM 52.0 °F - 34.0 °F 50% 30.18 in 10.0 mi Variable 5.8 mph - N/A   Clear
1:51 PM 52.0 °F - 33.1 °F 49% 30.17 in 10.0 mi Variable 4.6 mph - N/A   Clear
2:51 PM 52.0 °F - 30.9 °F 45% 30.17 in 10.0 mi Calm Calm - N/A   Clear
3:51 PM 51.1 °F - 30.0 °F 44% 30.17 in 10.0 mi ENE 3.5 mph - N/A   Clear
4:51 PM 50.0 °F - 28.0 °F 43% 30.19 in 10.0 mi NE 4.6 mph - N/A   Clear
5:51 PM 48.0 °F - 28.9 °F 48% 30.20 in 10.0 mi ENE 3.5 mph - N/A   Clear
6:51 PM 46.9 °F - 28.0 °F 48% 30.22 in 10.0 mi ENE 3.5 mph - N/A   Clear
7:51 PM 46.9 °F - 30.9 °F 54% 30.23 in 10.0 mi NE 4.6 mph - N/A   Clear
8:51 PM 46.9 °F - 30.9 °F 54% 30.24 in 10.0 mi ENE 4.6 mph - N/A   Clear
9:51 PM 46.9 °F - 32.0 °F 56% 30.23 in 10.0 mi Variable 3.5 mph - N/A   Clear
10:51 PM 45.0 °F 42.6 °F 30.0 °F 56% 30.23 in 10.0 mi ENE 4.6 mph - N/A   Clear
11:51 PM 44.1 °F 42.5 °F 32.0 °F 63% 30.23 in 10.0 mi ENE 3.5 mph - N/A   Clear